{"data":{"norad_id":46689,"intl_designator":"2020-073V","name":"STARLINK-1788","alt_names":[],"object_type":"PAYLOAD","status":"ACTIVE","operator":null,"country":"US","launch_date":"2020-10-18","launch_site_code":"AFETR","launch_vehicle":null,"mission":null,"orbit_class":"UNKNOWN","rcs_meters":null,"size_class":null,"mass_kg":null,"dimensions":null,"purposes":["comms"],"wikipedia_slug":null,"has_3d_model":false,"image_url":null,"decayed_at":null,"tle_current":{"epoch":"2026-05-25T04:13:25.200768Z","epoch_age_seconds":53063,"freshness":"FRESH","line1":"1 46689U 20073V   26145.17598612  .00147261  00000+0  79949-3 0  9993","line2":"2 46689  53.0339 199.8470 0007213 352.2063   7.8844 15.79052233310721","mean_motion":15.79052233,"eccentricity":0.0007213,"inclination_deg":53.0339,"raan_deg":199.847,"arg_perigee_deg":352.2063,"mean_anomaly_deg":7.8844,"bstar":0.00079949,"rev_number":31072,"period_min":91.193943424163,"perigee_km":328.28391531059,"apogee_km":337.96558150885,"semimajor_km":6711.2617484097,"source":"CELESTRAK","updated_at":"2026-05-25T13:38:16.515391Z"}}}